Location: Unspecified
(0.0000°N, 0.0000°E)
Time: 07:29:55
(UTC+00:00)

A-11 Canister half - Pass Details

Date: 15 December 2018
Orbit: 1516 x 1684 km, 47.2° (Epoch: 15 June)

Event Time Altitude Azimuth Distance (km) Brightness Sun altitude
Exits shadow 00:49:37 11° 175° (S) 3,742 11.2 -63.2°
Drops below altitude 10° 00:50:04 10° 173° (S) 3,848 11.3 -63.2°
Sets 00:53:47 0° 162° (SSE) 4,809 12.0 -62.7°
